• Join FlightAware (Why Join?)
  • Login
  • US Flag 
11:45PM EST


 

Airport Tracker/Info


-or-


 

Live Flight TrackerFlight Track Log ✈ ACA7034 ✈ 13-Apr-2014 ✈ KPHL - KRDU

Flight Track Log - Related Links

Times and Time Zones

All times are in EDT time to prevent confusion due to time zone crossing. See the ACA7034 flight status page for this flight to view local times or setup timezone preferences in your user account.

Time Position Orientation Groundspeed Altitude Reporting Facility
EDT Latitude Longitude Course Direction KTS MPH feet Rate Location/Type
07:57PM 39.8667 -75.2667 211° Southwest 137 158 500  Level Philadelphia TRACON
07:59PM 39.7819 -75.3333 211° Southwest 221 254 5,800 2,923 Climbing Washington Center
08:00PM 39.6922 -75.3403 183° South 272 313 10,000 3,264 Climbing Washington Center
08:01PM 39.6039 -75.3461 183° South 328 377 12,600 2,714 Climbing Washington Center
08:02PM 39.5083 -75.3525 183° South 345 397 15,700 1,632 Climbing Washington Center
08:03PM 39.4094 -75.3594 183° South 353 406 16,000 492 Climbing Washington Center
08:04PM 39.3100 -75.3675 184° South 356 410 16,700 537 Climbing Washington Center
08:05PM 39.1914 -75.3775 184° South 358 412 17,100 1,333 Climbing Washington Center
08:07PM 39.0922 -75.3928 187° South 358 412 19,500 2,516 Climbing Washington Center
08:08PM 38.9903 -75.4100 187° South 365 420 22,300 2,371 Climbing Washington Center
08:09PM 38.8833 -75.4256 186° South 380 437 24,400 2,081 Climbing Washington Center
08:10PM 38.7733 -75.4447 188° South 396 456 26,600 1,694 Climbing Washington Center
08:11PM 38.6611 -75.4606 186° South 403 464 27,900 614 Climbing Washington Center
08:12PM 38.5294 -75.4831 188° South 402 463 27,900 48 Level Washington Center
08:13PM 38.4433 -75.5608 215° Southwest 380 437 28,000  Climbing Washington Center
08:14PM 38.3550 -75.6306 212° Southwest 379 436 27,900  Descending Washington Center
08:15PM 38.2578 -75.7083 212° Southwest 378 435 28,000 48 Climbing Washington Center
08:16PM 38.1692 -75.7792 212° Southwest 378 435 28,000  Level Washington Center
08:17PM 38.0817 -75.8517 213° Southwest 378 435 28,000  Level Washington Center
08:18PM 37.9922 -75.9231 212° Southwest 380 437 28,000  Level Washington Center
08:19PM 37.8836 -76.0078 212° Southwest 381 438 28,000  Level Washington Center
08:20PM 37.7939 -76.0786 212° Southwest 382 440 28,000 -48 Level Washington Center
08:21PM 37.7033 -76.1508 212° Southwest 383 441 27,900  Descending Washington Center
08:22PM 37.6133 -76.2206 212° Southwest 383 441 28,000 48 Climbing Washington Center
08:23PM 37.5225 -76.2903 211° Southwest 383 441 28,000 -144 Level Washington Center
08:24PM 37.4328 -76.3614 212° Southwest 383 441 27,700 -1,210 Descending Washington Center
08:25PM 37.3283 -76.4428 212° Southwest 374 430 25,500 -1,776 Descending Washington Center
08:26PM 37.2497 -76.5158 217° Southwest 361 415 24,000 -960 Descending Washington Center
08:27PM 37.1889 -76.6081 230° Southwest 348 400 23,500 -443 Descending Washington Center
08:28PM 37.1289 -76.7000 231° Southwest 344 396 23,100 -384 Descending Washington Center
08:29PM 37.0708 -76.7917 232° Southwest 340 391 22,700 -439 Descending Washington Center
08:30PM 37.0133 -76.8831 232° Southwest 337 388 22,200 -532 Descending Washington Center
08:31PM 36.9442 -76.9903 231° Southwest 332 382 21,600 -768 Descending Washington Center
08:32PM 36.8867 -77.0767 230° Southwest 328 377 20,600 -871 Descending Washington Center
08:33PM 36.8306 -77.1622 231° Southwest 324 373 19,800 -816 Descending Washington Center
08:34PM 36.7742 -77.2489 231° Southwest 323 372 18,900 -864 Descending Washington Center
08:35PM 36.7186 -77.3333 231° Southwest 320 368 18,000 -816 Descending Washington Center
08:37PM 36.6539 -77.4336 231° Southwest 314 361 17,200 -871 Descending Washington Center
08:38PM 36.6000 -77.5169 231° Southwest 313 360 16,200 -878 Descending Washington Center
08:39PM 36.5464 -77.5972 230° Southwest 307 353 15,400 -774 Descending Washington Center
08:40PM 36.4939 -77.6778 231° Southwest 305 351 14,600 -768 Descending Washington Center
08:41PM 36.4406 -77.7589 231° Southwest 305 351 13,800 -780 Descending Washington Center
08:42PM 36.3861 -77.8447 232° Southwest 304 350 13,000 -774 Descending Washington Center
08:43PM 36.3342 -77.9236 231° Southwest 297 342 12,200 -720 Descending Washington Center
08:43PM 36.2922 -77.9806 228° Southwest 294 338 11,800 -885 Descending Washington Center
08:44PM 36.2725 -78.0169 236° Southwest 293 337 11,300 -818 Descending Washington Center
08:45PM 36.2200 -78.0931 229° Southwest 291 335 10,600 -694 Descending Washington Center
08:46PM 36.1661 -78.1722 230° Southwest 293 337 9,900 -1,220 Descending Washington Center
08:47PM 36.1256 -78.2578 240° Southwest 289 333 8,200 -1,512 Descending Washington Center
08:48PM 36.0975 -78.3447 248° West 270 311 6,800 -1,436 Descending Washington Center
08:49PM 36.0764 -78.4247 252° West 260 299 5,400 -1,522 Descending Washington Center
08:49PM 36.0722 -78.4436 255° West 265 305 5,100 -1,343 Descending Washington Center
08:50PM 36.0539 -78.5175 253° West 246 283 3,900 -1,101 Descending Washington Center
08:51PM 36.0361 -78.5797 251° West 229 264 3,100 -783 Descending Washington Center
08:51PM 36.0325 -78.5972 256° West 235 270 3,000 -91 Descending Washington Center
08:52PM 35.9992 -78.6472 231° Southwest 197 227 3,000 94 Level Washington Center
08:52PM 35.9983 -78.6506 253° West 206 237 3,100 -655 Climbing Washington Center
08:53PM 35.9686 -78.6847 223° Southwest 167 192 2,400 -800 Descending Washington Center
08:53PM 35.9636 -78.6928 233° Southwest 184 212 2,300 -612 Descending Washington Center
08:54PM 35.9453 -78.7128 221° Southwest 145 167 1,900 -689 Descending Washington Center
08:54PM 35.9375 -78.7256 233° Southwest 151 174 1,600 -727 Descending Washington Center
08:55PM 35.9192 -78.7481 225° Southwest 120 138 1,100 -656 Descending Washington Center
08:55PM 35.9086 -78.7617 226° Southwest 130 150 900 -264 Descending Washington Center
08:56PM 35.8836 -78.7906 223° Southwest 130 150 700 -190 Descending Washington Center
08:58PM 35.8776 -78.7875 349° North  Level Estimated